Tracking 31027 objects as of 19-Jul-2025
HD Live streaming from Space Station
objects crossing your sky now

ONEWEB-0508

Track ONEWEB-0508 now!
10-day predictions
ONEWEB-0508 is classified as:


NORAD ID: 54126
Int'l Code: 2022-138P
Perigee: 1,191.2 km
Apogee: 1,194.6 km
Inclination: 87.9 °
Period: 109.1 minutes
Semi major axis: 7563 km
RCS: Unknown
Launch date: October 22, 2022
Source: United Kingdom (UK)
Launch site: SRIHARIKOTA (SRI)
Your satellite tracking list
STARLINK-5129
Track 1 satellite(s)




NASA's NSSDC Master Catalog

Two Line Element Set (TLE):
1 54126U 22138P   25199.75077228  .00000071  00000-0  14595-3 0  9993
2 54126  87.9219  11.2607 0002253  88.8284 271.3107 13.19724852132855
Source of the keplerian elements: AFSPC